Total_Precipitation_Accumulation
2.16 2.21 3.21 3.15 2.95 2.86 2.75 2.74 2.71 2.70 2.66 2.53 2.32 2.25 2.22 2.13 2.00 1.96 1.85 1.85 1.91 2.08 2.13 2.22 2.26 2.19 2.25 2.24 2.19 2.13 2.14 2.22 2.13 1.90 1.86 1.89 2.02 2.26 2.36 2.40 2.35 2.30 2.59
1.70 2.12 3.13 3.04 2.91 2.77 2.65 2.67 2.60 2.48 2.33 2.18 2.14 2.13 2.17 2.08 1.98 1.86 1.80 1.89 1.92 2.01 2.00 2.08 2.11 2.12 2.14 2.18 2.19 2.24 2.19 2.09 2.02 1.94 2.10 2.13 2.27 2.36 2.33 2.29 2.44 2.49 2.60
1.50 1.78 2.37 3.03 2.91 2.69 2.63 2.69 2.62 2.41 2.11 1.93 1.89 1.93 1.96 1.91 1.92 1.93 1.93 1.90 1.96 1.92 1.82 1.98 2.24 2.26 2.19 2.16 2.18 2.20 2.20 2.12 2.12 2.28 2.76 3.10 2.78 2.60 2.30 2.31 2.41 2.33 2.34
1.35 1.54 1.84 2.74 2.72 2.67 2.65 2.46 2.41 2.17 1.89 1.76 1.73 1.73 1.75 1.88 2.10 2.20 2.13 2.06 2.07 1.87 1.70 1.74 2.12 2.27 2.22 2.08 1.93 1.95 2.09 2.20 2.38 2.66 2.99 3.48 3.34 3.00 2.68 2.50 2.46 2.37 2.30
1.36 1.58 2.24 2.82 2.60 2.54 2.44 2.26 2.25 2.12 1.89 1.77 1.74 1.71 1.75 2.01 2.19 2.18 2.20 2.16 2.09 1.91 1.82 1.92 2.28 2.19 2.14 2.03 1.90 1.91 2.04 2.29 2.54 2.40 2.63 3.10 3.55 3.55 2.90 2.60 2.56 2.55 2.57
1.38 1.57 2.21 2.56 2.31 2.21 2.17 2.12 2.02 2.06 2.08 1.86 1.70 1.74 1.93 2.28 2.32 2.32 2.34 2.11 2.08 1.99 2.02 2.14 2.32 2.30 2.21 2.15 2.06 1.91 2.02 2.33 2.22 2.13 2.58 2.98 3.30 3.37 2.81 2.59 2.61 2.70 2.78
1.20 1.31 1.75 2.23 2.07 1.98 1.98 1.97 1.87 1.96 2.09 1.97 1.74 1.85 2.10 2.41 2.44 2.40 2.28 2.08 2.08 2.08 2.16 2.38 2.41 2.43 2.33 2.17 2.19 2.10 2.07 2.11 1.88 2.12 2.60 3.03 3.08 2.94 2.75 2.57 2.49 2.72 2.97
1.23 1.18 1.36 1.83 1.93 1.80 1.83 1.98 1.89 1.88 1.99 1.94 1.86 1.89 2.03 2.37 2.35 2.34 2.24 2.08 2.01 2.10 2.37 2.70 2.63 2.51 2.31 2.21 2.25 2.32 2.28 1.97 1.59 1.72 2.07 2.82 3.30 3.08 2.70 2.44 2.43 2.57 2.85
1.51 1.38 1.26 1.32 1.50 1.63 1.76 1.91 1.90 1.85 1.83 1.77 1.87 1.91 2.12 2.45 2.31 2.16 2.15 2.09 2.06 2.16 2.30 2.53 2.45 2.34 2.30 2.29 2.24 2.30 2.35 2.18 1.79 1.71 1.69 2.51 3.24 3.21 2.71 2.35 2.24 2.45 2.59
1.59 1.46 1.25 1.15 1.19 1.36 1.41 1.60 1.84 1.90 1.82 1.71 1.79 1.93 2.10 2.32 2.28 2.15 2.06 2.20 2.29 2.27 2.39 2.55 2.42 2.26 2.27 2.19 2.15 2.32 2.36 2.07 1.73 1.58 1.84 2.49 3.38 3.48 3.05 2.39 2.10 2.14 2.20
1.37 1.27 1.17 1.12 1.17 1.29 1.35 1.40 1.73 1.81 1.71 1.55 1.55 1.81 1.85 1.81 1.90 2.12 2.22 2.53 2.51 2.50 2.57 2.65 2.61 2.37 2.12 2.04 2.15 2.26 2.10 1.81 1.80 1.73 2.14 2.91 3.40 3.41 3.18 2.65 2.16 1.92 1.86
1.09 0.98 0.94 0.94 1.03 1.15 1.21 1.59 1.88 1.68 1.61 1.39 1.43 1.47 1.58 1.68 1.93 1.95 2.25 2.68 2.59 2.51 2.46 2.59 2.58 2.18 1.69 1.41 1.71 1.81 1.66 1.81 1.96 1.79 2.32 3.13 3.44 3.36 3.00 2.66 2.27 2.03 1.91
0.83 0.76 0.73 0.67 0.68 0.76 1.01 1.37 1.70 1.85 1.86 1.84 1.67 1.52 1.61 1.39 1.36 1.39 1.52 1.74 1.82 1.87 1.80 1.90 2.00 1.70 1.43 1.34 1.38 1.46 1.65 1.73 2.10 2.05 2.43 3.09 3.41 3.46 3.11 2.73 2.40 2.20 2.12
0.80 0.75 0.67 0.63 0.59 0.61 0.70 0.90 1.15 1.33 1.46 1.54 1.45 1.28 1.40 1.33 1.26 1.28 1.32 1.31 1.31 1.40 1.52 1.51 1.63 1.58 1.38 1.28 1.25 1.39 1.52 1.59 1.87 2.23 2.58 2.80 3.16 3.49 3.30 2.88 2.58 2.37 2.31
0.92 0.90 0.80 0.69 0.64 0.64 0.69 0.76 0.85 1.04 1.17 1.20 1.28 1.21 1.20 1.31 1.35 1.30 1.22 1.22 1.14 1.21 1.35 1.46 1.48 1.51 1.53 1.45 1.30 1.43 1.53 1.67 1.80 1.89 2.13 2.44 2.77 3.33 3.68 3.51 3.10 2.76 2.61
1.01 0.96 0.92 0.81 0.77 0.74 0.73 0.74 0.83 0.92 0.98 1.00 1.00 1.00 1.10 1.24 1.28 1.31 1.29 1.32 1.27 1.27 1.38 1.40 1.33 1.46 1.64 1.57 1.38 1.35 1.42 1.54 1.69 1.68 1.78 2.05 2.38 2.78 3.57 3.94 3.77 3.45 3.29
0.97 0.90 0.90 0.90 0.92 0.90 0.86 0.79 0.81 0.91 0.99 0.99 0.95 0.87 0.90 1.02 1.11 1.21 1.24 1.23 1.26 1.40 1.45 1.50 1.32 1.38 1.44 1.44 1.43 1.39 1.33 1.38 1.45 1.50 1.46 1.58 1.79 2.19 2.88 3.57 3.98 3.91 3.81
0.79 0.78 0.86 0.87 0.90 0.93 0.94 0.94 0.96 0.98 1.07 1.02 1.01 0.92 0.87 0.93 1.04 1.20 1.22 1.18 1.20 1.39 1.54 1.62 1.53 1.54 1.52 1.49 1.52 1.49 1.38 1.40 1.32 1.35 1.37 1.39 1.64 1.66 2.09 2.72 3.27 3.48 3.67
0.72 0.72 0.74 0.80 0.79 0.86 0.92 0.96 1.08 1.13 1.15 1.11 1.09 1.00 0.97 1.04 1.15 1.32 1.41 1.40 1.37 1.43 1.49 1.49 1.60 1.64 1.63 1.64 1.55 1.52 1.49 1.42 1.44 1.30 1.33 1.43 1.44 1.56 1.78 2.04 2.46 2.74 3.02
0.71 0.68 0.68 0.74 0.76 0.78 0.90 1.01 1.20 1.34 1.32 1.32 1.22 1.15 1.18 1.33 1.49 1.62 1.61 1.68 1.70 1.64 1.66 1.64 1.72 1.70 1.64 1.71 1.56 1.45 1.45 1.36 1.48 1.54 1.47 1.51 1.50 1.49 1.86 2.08 2.11 2.05 2.40
0.65 0.67 0.68 0.66 0.72 0.76 0.80 0.95 1.19 1.47 1.58 1.67 1.58 1.38 1.33 1.47 1.76 2.02 1.95 2.01 2.07 2.01 1.99 1.98 2.23 2.20 1.94 1.77 1.87 1.72 1.56 1.44 1.61 1.64 1.57 1.66 1.73 1.85 2.08 2.12 1.97 1.84 1.76
0.53 0.60 0.65 0.64 0.69 0.72 0.77 0.95 1.13 1.30 1.30 1.46 1.58 1.54 1.46 1.45 1.63 1.80 2.08 2.22 2.18 2.32 2.42 2.39 2.76 2.92 2.43 2.00 2.15 2.43 2.17 1.98 1.78 1.63 1.66 1.70 1.84 2.06 2.16 2.04 1.88 1.68 1.56
0.43 0.44 0.48 0.52 0.60 0.70 0.83 1.04 1.28 1.52 1.60 1.62 1.52 1.58 1.59 1.50 1.57 1.72 1.87 2.02 2.06 2.21 2.40 2.52 2.84 3.40 3.16 2.49 2.31 2.77 2.59 2.39 2.25 1.91 1.72 1.72 1.79 2.04 2.31 2.25 2.01 1.78 1.58
0.41 0.41 0.44 0.53 0.66 0.86 1.05 1.26 1.51 1.72 1.78 1.65 1.63 1.65 1.54 1.45 1.44 1.57 1.71 1.82 1.95 2.01 2.19 2.29 2.43 3.02 3.44 3.10 2.80 2.50 2.20 2.18 2.39 2.38 2.00 1.78 1.77 1.90 2.11 2.11 1.99 1.93 1.78
0.48 0.52 0.55 0.73 0.95 1.21 1.41 1.67 1.96 1.94 1.83 1.73 1.67 1.64 1.58 1.55 1.52 1.53 1.70 1.76 1.77 1.86 2.01 2.35 2.62 2.93 3.19 3.22 3.20 2.97 2.67 2.39 2.06 2.35 2.43 2.08 1.93 1.89 1.93 1.98 1.89 1.88 1.87
0.76 0.91 1.10 1.35 1.50 1.59 1.72 1.87 1.99 1.94 1.94 1.89 1.71 1.60 1.58 1.62 1.67 1.68 1.73 1.76 1.74 1.79 1.91 2.18 2.50 2.72 3.05 3.29 3.26 3.06 2.93 2.81 2.54 2.47 2.36 2.20 2.21 2.07 1.93 1.88 1.74 1.73 1.87